Weather History for Carlsbad, NM

Change the Weather History Date:

Tuesday, February 12, 2013

  Actual Average Record
Temperature  
Mean Temperature 43 °F -  
Max Temperature 54 °F 63 °F 82 °F (1951)
Min Temperature 32 °F 30 °F 17 °F (1963)
Degree Days  
Heating Degree Days 22    
Moisture  
Dew Point 23 °F    
Average Humidity 46    
Maximum Humidity 70    
Minimum Humidity 24    
Precipitation  
Precipitation 0.00 in - - ()
Sea Level Pressure  
Sea Level Pressure 29.96 in    
Wind  
Wind Speed 12 mph (NW)    
Max Wind Speed 24 mph    
Max Gust Speed 33 mph    
Visibility 10 miles    
Events      
Averages and records for this station are not official NWS values.
T = Trace of Precipitation, MM = Missing Value Source: NWS Daily Summary

Daily Weather History Graph

Daily Weather History Graph

Search for Another Location

Airport:

Trip Planner

Search our weather history database for the weather conditions in past years. The results will help you decide how hot, cold, wet, or windy it might be!

Date:

Astronomy

Feb. 12, 2013 Rise Set
Actual Time 6:42 AM MST 5:40 PM MST
Civil Twilight 6:16 AM MST 6:05 PM MST
Nautical Twilight 5:48 AM MST 6:34 PM MST
Astronomical Twilight 5:19 AM MST 7:03 PM MST
Moon 7:53 AM MST (2/12) 8:29 PM MST (2/12)
Length of Visible Light 11h 48m
Length of Day
10h 58m
Waxing Crescent, 8% of the Moon is Illuminated
Feb 12
Waxing Crescent
Feb 17
First Quarter
Feb 25
Full
Mar 4
Last Quarter
Mar 11
New

Hourly Weather History & Observations

Time (MST) Temp. Windchill Dew Point Humidity Pressure Visibility Wind Dir Wind Speed Gust Speed Precip Events Conditions
12:53 AM 39.9 °F 35.1 °F 26.1 °F 58% 29.82 in 10.0 mi WSW 6.9 mph - N/A   Clear
1:53 AM 43.0 °F 38.2 °F 32.0 °F 65% 29.81 in 10.0 mi West 8.1 mph - N/A   Partly Cloudy
2:53 AM 46.9 °F - 26.1 °F 44% 29.81 in 10.0 mi West 23.0 mph 33.4 mph N/A   Mostly Cloudy
3:53 AM 42.1 °F 32.3 °F 30.9 °F 65% 29.83 in 10.0 mi West 24.2 mph 32.2 mph N/A   Scattered Clouds
4:53 AM 39.0 °F 31.8 °F 30.0 °F 70% 29.82 in 10.0 mi SW 11.5 mph - N/A   Clear
5:53 AM 42.1 °F 33.1 °F 28.9 °F 60% 29.86 in 10.0 mi West 20.7 mph 28.8 mph N/A   Clear
6:53 AM 39.9 °F 32.1 °F 28.0 °F 63% 29.90 in 10.0 mi WSW 13.8 mph - N/A   Clear
7:53 AM 43.0 °F 36.4 °F 28.0 °F 56% 29.95 in 10.0 mi WNW 12.7 mph - N/A   Clear
8:53 AM 44.1 °F 38.1 °F 24.1 °F 45% 29.98 in 10.0 mi NNW 11.5 mph - N/A   Scattered Clouds
9:53 AM 46.0 °F 39.9 °F 26.1 °F 46% 29.99 in 10.0 mi NNW 13.8 mph 19.6 mph N/A   Partly Cloudy
10:53 AM 48.9 °F - 28.0 °F 44% 29.99 in 10.0 mi NNW 16.1 mph - N/A   Clear
11:53 AM 52.0 °F - 21.9 °F 31% 29.98 in 10.0 mi NNW 19.6 mph 29.9 mph N/A   Partly Cloudy
12:53 PM 53.1 °F - 24.1 °F 32% 29.97 in 10.0 mi North 20.7 mph 28.8 mph N/A   Clear
1:53 PM 52.0 °F - 23.0 °F 32% 29.95 in 10.0 mi North 17.3 mph 28.8 mph N/A   Partly Cloudy
2:53 PM 54.0 °F - 21.9 °F 29% 29.94 in 10.0 mi North 16.1 mph 20.7 mph N/A   Clear
3:53 PM 54.0 °F - 18.0 °F 24% 29.95 in 10.0 mi North 12.7 mph 17.3 mph N/A   Clear
4:53 PM 52.0 °F - 16.0 °F 24% 29.97 in 10.0 mi North 10.4 mph - N/A   Clear
5:53 PM 46.9 °F - 17.1 °F 30% 29.99 in 10.0 mi ENE 4.6 mph - N/A   Clear
6:53 PM 44.1 °F 40.8 °F 18.0 °F 35% 30.04 in 10.0 mi NE 5.8 mph - N/A   Clear
7:53 PM 35.1 °F - 16.0 °F 46% 30.07 in 10.0 mi Calm Calm - N/A   Clear
8:53 PM 35.1 °F 32.2 °F 16.0 °F 46% 30.09 in 10.0 mi WNW 3.5 mph - N/A   Clear
9:53 PM 32.0 °F 25.6 °F 16.0 °F 52% 30.10 in 10.0 mi West 6.9 mph - N/A   Clear
10:53 PM 33.1 °F 26.9 °F 17.1 °F 52% 30.09 in 10.0 mi West 6.9 mph - N/A   Clear
11:53 PM 33.1 °F 26.1 °F 17.1 °F 52% 30.09 in 10.0 mi WSW 8.1 mph - N/A   Clear